#timestamp,LO_Frequency,Hit,StdDev 
1590159615.3,286046998.4,N
1590159635.1,286047000.1,N
1590159655.9,286047001.5,N
1590159675.7,286047005.8,N
1590159695.5,286047005.6,N
1590159715.4,286047004.7,N
1590159735.2,286047008.1,N
1590159755.0,286047009.8,N
1590159756.0,286047009.8,N
1590159775.8,286047007.8,N
1590159795.6,286047006.6,N
1590159815.5,286047009.0,N
1590159835.3,286047008.1,N
1590159855.1,286047005.0,N
1590159875.9,286047007.7,N
1590159895.7,286047006.6,N
1590159915.5,286047009.2,N
1590159935.4,286047004.8,N
1590159955.2,286047006.4,N
1590159975.1,286047006.0,N
1590159976.0,286047006.0,N
1590159995.8,286047000.7,N
1590160015.6,286047000.0,N
1590160035.5,286046996.7,N
1590160055.3,286047003.0,N
1590160075.1,286047002.9,N
1590160095.9,286047010.0,N
1590160115.7,286047013.4,Y
1590160135.6,286047006.1,P
1590160155.4,286047007.6,P
1590160175.2,286047003.2,N
1590160195.1,286047005.5,Y
1590160196.0,286047005.5,P
1590160215.8,286047000.0,N
1590160235.7,286047002.2,N
1590160255.5,286047003.0,N
1590160275.4,286047002.0,N
1590160295.2,286047005.8,N
1590160315.0,286047005.9,N
1590160315.9,286047005.9,N
1590160335.8,286047005.9,N
1590160355.6,286047005.8,N
1590160375.4,286047007.2,Y
1590160395.3,286047000.4,P
1590160415.1,286047000.6,N
1590160435.9,286047002.6,N
1590160455.7,286047000.3,N
1590160475.5,286047002.7,N
1590160495.4,286047001.9,N
1590160515.2,286046999.9,N
1590160535.0,286047002.4,N
1590160535.9,286047002.4,N
1590160555.8,286047001.1,N
1590160575.6,286047002.0,N
1590160595.5,286047001.5,N
1590160615.3,286046997.7,N
1590160635.1,286047000.7,N
1590160655.9,286047003.1,N
1590160675.7,286047001.9,N
1590160695.5,286047002.1,N
1590160715.4,286046999.8,N
1590160735.2,286047007.2,Y
1590160755.1,286047007.4,P
1590160756.0,286047007.4,N
1590160775.8,286047004.7,N
1590160795.6,286047008.6,Y
1590160815.5,286047004.7,P
1590160835.3,286047003.6,P
1590160855.1,286047003.9,P
1590160875.9,286047004.4,Y
1590160895.7,286047000.4,P
1590160915.6,286047003.8,N
1590160935.4,286047003.2,N
1590160955.2,286047006.9,Y
1590160975.1,286047004.5,P
1590160976.0,286047004.5,P
1590160995.8,286047007.2,P
1590161015.7,286047008.2,Y
1590161035.5,286047007.4,P
1590161055.3,286047007.3,P
1590161075.2,286047008.7,P
1590161095.0,286047008.4,Y
1590161095.9,286047008.4,P
1590161115.7,286047001.5,N
1590161135.6,286047003.3,N
1590161155.4,286047006.0,N
1590161175.3,286047005.7,N
1590161195.1,286047005.3,N
1590161196.0,286047005.3,N
1590161215.8,286047004.5,N
1590161235.7,286047010.4,Y
1590161255.5,286047004.8,P
1590161275.4,286047004.5,P
1590161295.2,286047006.5,P
1590161315.0,286047006.8,Y
1590161315.9,286047006.8,P
1590161335.8,286047001.0,N
1590161355.6,286046996.6,N
1590161375.4,286046998.8,N
1590161395.3,286047000.5,N
1590161415.1,286047000.5,N
1590161435.9,286047000.5,N
1590161455.7,286046999.9,N
1590161475.5,286047001.5,N
1590161495.4,286047000.2,N
1590161515.2,286047002.0,N
1590161535.0,286047004.2,N
1590161535.9,286047004.2,N
1590161555.8,286047005.9,N
1590161575.6,286047004.7,N
1590161595.5,286047005.4,N
1590161615.3,286047005.4,N
1590161635.1,286047003.0,N
1590161655.9,286047005.4,N
1590161675.7,286047003.5,N
1590161695.5,286047001.6,N
1590161715.4,286047003.9,N
1590161735.2,286047005.8,N
1590161755.1,286047002.9,N
1590161756.0,286047002.9,N
1590161775.8,286047004.6,N
1590161795.6,286047005.7,N
1590161815.5,286047006.0,N
1590161835.3,286047005.0,N
1590161855.1,286047004.7,N
1590161875.9,286047005.9,N
1590161895.7,286047004.9,N
1590161915.6,286047005.8,N
1590161935.4,286047005.1,N
1590161955.2,286047004.7,N
1590161975.1,286047005.8,Y
1590161976.0,286047005.8,P
1590161995.8,286047000.7,N
1590162015.6,286046996.9,N
1590162035.5,286046999.5,N
1590162055.3,286046998.9,N
1590162075.2,286046999.4,N
1590162095.9,286047001.1,N
1590162115.7,286046999.1,N
1590162135.6,286046998.7,N
1590162155.4,286047001.2,N
1590162175.2,286046995.3,N
1590162195.1,286046996.3,N
1590162196.0,286046996.3,N
1590162215.8,286046995.3,N
1590162235.7,286046996.7,N
1590162255.5,286046998.6,N
1590162275.3,286046998.7,N
1590162295.2,286046998.6,N
1590162315.0,286046998.8,N
1590162315.9,286046998.8,N
1590162335.8,286046998.9,N
1590162355.6,286046997.4,N
1590162375.4,286046995.1,N
1590162395.3,286046992.3,Y
1590162415.1,286046993.7,P
1590162435.8,286046993.0,N
1590162455.7,286046989.1,P
1590162475.5,286046982.3,Y
1590162495.4,286046982.4,P
1590162515.2,286046981.0,P
1590162535.0,286046975.9,P
1590162535.9,286046975.9,Y
1590162555.8,286046997.5,P
1590162575.6,286046997.8,N
1590162595.5,286047003.2,N
1590162615.3,286047004.7,N
1590162635.1,286047006.5,N
1590162655.9,286047003.0,N
1590162675.7,286047003.5,N
1590162695.5,286047003.2,N
1590162715.4,286047000.4,N
1590162735.2,286047004.5,N
1590162755.0,286047007.5,N
1590162756.0,286047007.5,N
1590162775.8,286047007.9,N
1590162795.6,286047012.3,N
1590162815.5,286047012.8,N
1590162835.3,286047015.3,N
1590162855.1,286047012.9,N
1590162875.9,286047013.2,N
1590162895.7,286047015.5,N
1590162915.5,286047014.5,N
1590162935.4,286047016.0,N
1590162955.2,286047018.3,N
1590162975.1,286047018.7,N
1590162976.0,286047018.7,N
1590162995.8,286047018.0,N
1590163015.6,286047018.8,N
1590163035.5,286047016.9,N
1590163055.3,286047012.8,N
1590163075.1,286047015.2,N
1590163095.9,286047014.7,N
1590163115.7,286047016.2,N
1590163135.6,286047017.5,N
1590163155.4,286047018.0,Y
1590163175.2,286047008.9,P
1590163195.1,286047008.8,P
1590163196.0,286047008.8,P
